Flag for U.S.A. Weather past 2 weeks in Wilmington, North Carolina, U.S.A.

Now
64 °F

Sunny.


Feels Like: 64 °F
Forecast: 53 / 79 °F
Wind: No wind

Location: New Hanover International Airport

Current Time: May 22, 2015 at 9:45:19 PM

Latest Report: May 22, 2015 at 8:53 PM


Visibility: 10 mi

Pressure: 30.22 "Hg

Humidity: 84%

Dew point: 59 °F

Location of WilmingtonLocation

Historic Weather in Wilmington — Graph

°F

Wilmington temperature yesterday

Maximum temperature yesterday: 85 °F (at 12:53 PM)
Minimum temperature yesterday: 64 °F (at 11:53 PM)
Average temperature yesterday: 76 °F

Past Weeks' High & Low Weather Summary

 TemperatureHumidityPressure
High90 °F (May 19, 3:53 PM)97% (May 10, 3:53 PM)30.38 "Hg (May 10, 3:53 PM)
Low55 °F (May 15, 5:53 AM)38% (May 13, 1:53 PM)29.74 "Hg (May 21, 3:53 PM)
Average72 °F77%30.09 "Hg
* Reported May 7 8:53 PM — May 22 8:53 PM, Wilmington, Weather by CustomWeather, © 2015

Note: Actual official high and low records may vary slightly from our data, if they occured in-between our weather recording intervals... More about our weather records

Advertising

Wilmington weather history for previous 24 hours

 ConditionsComfort  
Time TempWeatherWind HumidityBarometerVisibility
8:53 PM
Fri, May 22
64 °FSunny.No wind84%30.22 "Hg10 mi
7:53 PM69 °FSunny.No wind68%30.21 "Hg10 mi
6:53 PM70 °FScattered clouds.No wind64%30.18 "Hg10 mi
5:53 PM71 °FOvercast.3 mph61%30.17 "Hg10 mi
4:53 PM73 °FPartly sunny.6 mph51%30.17 "Hg10 mi
3:53 PM74 °FOvercast.N/A50%30.17 "Hg10 mi
2:53 PM71 °FPartly sunny.8 mph57%30.17 "Hg10 mi
1:53 PM72 °FPartly sunny.8 mph55%30.17 "Hg10 mi
12:53 PM71 °FPartly sunny.No wind55%30.17 "Hg10 mi
11:53 AM69 °FScattered clouds.8 mph59%30.17 "Hg10 mi
10:53 AM67 °FMostly cloudy.13 mph63%30.16 "Hg10 mi
9:53 AM65 °FMostly cloudy.15 mph68%30.15 "Hg10 mi
8:53 AM63 °FBroken clouds.15 mph73%30.14 "Hg10 mi
7:53 AM62 °FPartly sunny.10 mph80%30.11 "Hg10 mi
6:53 AM60 °FOvercast.9 mph86%30.09 "Hg10 mi
5:53 AM60 °FPartly cloudy.7 mph86%30.04 "Hg10 mi
4:53 AM61 °FOvercast.7 mph87%30.01 "Hg10 mi
3:53 AM61 °FPassing clouds.8 mph90%29.99 "Hg10 mi
2:53 AM62 °FPassing clouds.6 mph86%29.98 "Hg10 mi
1:53 AM63 °FPassing clouds.6 mph87%29.98 "Hg10 mi
12:53 AM64 °FOvercast.7 mph84%29.97 "Hg10 mi
11:53 PM
Thu, May 21
64 °FPassing clouds.6 mph87%29.91 "Hg10 mi
10:53 PM65 °FClear.6 mph91%29.89 "Hg10 mi
9:53 PM66 °FClear.9 mph87%29.89 "Hg10 mi
Weather by CustomWeather, © 2015

See weather overviewHow to use our weather pages